Temp
-4 -4 -3 -3 -4 -3 -4 -4 -3 -3 -4 -3 -2 -2 -2 -2 -1 -1 -1 -0 1 1 2 3 4 5 6 6 6 6 4 5 5 4 5 6 6 8 8 7 9 7 7 7 7 6 6 12 11 9 9 8 8 8
-4 -4 -4 -4 -4 -4 -4 -4 -4 -4 -4 -2 -1 -2 -2 -2 -1 -1 -1 -1 1 2 3 2 3 4 5 6 6 5 7 7 6 6 7 7 7 8 8 7 10 7 8 7 8 8 6 9 9 8 6 7 6 6
-4 -4 -4 -4 -4 -4 -3 -3 -3 -4 -5 -2 -2 -2 -2 -2 -2 -1 -1 -0 1 1 2 2 2 2 2 3 4 6 6 6 5 4 5 5 5 8 6 8 8 10 10 8 8 9 10 8 8 6 5 6 5 4
-4 -4 -4 -4 -4 -3 -3 -3 -4 -4 -3 -3 -3 -2 -2 -2 -1 -1 -1 -0 1 2 3 3 3 3 2 2 3 4 5 4 4 3 3 4 4 4 6 8 7 8 9 8 8 9 7 7 7 6 5 4 4 3
-4 -4 -4 -4 -4 -3 -3 -3 -3 -3 -3 -3 -3 -2 -2 -1 -1 -1 -1 -0 1 2 3 4 1 2 2 2 2 3 3 3 3 3 3 4 6 5 6 6 7 9 8 7 8 7 6 7 6 5 4 3 2 2
-4 -4 -4 -4 -4 -3 -3 -3 -4 -3 -3 -3 -2 -2 -2 -2 -2 -2 -2 -1 -1 -0 1 2 1 2 2 2 2 2 3 3 1 1 4 4 5 4 5 6 8 8 8 7 6 4 3 4 5 4 3 2 1 1
-4 -4 -4 -4 -4 -3 -3 -3 -4 -3 -2 -2 -2 -2 -2 -2 -2 -1 -0 -1 -1 -1 -1 2 4 1 2 2 2 2 2 1 1 0 2 4 4 3 5 5 6 5 6 5 4 3 3 2 2 2 2 1 0 -0
-4 -4 -4 -5 -5 -4 -3 -3 -4 -3 -3 -3 -2 -2 -2 -2 -2 -1 -1 -1 -1 -1 -1 2 2 0 -0 -0 0 -0 -0 -0 0 2 2 4 3 1 3 6 7 5 3 3 3 2 3 2 1 0 -0 -1 -1 -2
-4 -3 -5 -4 -4 -4 -4 -3 -3 -3 -3 -2 -2 -3 -3 -3 -2 -1 -2 -2 -2 -1 1 2 2 1 -1 -1 -1 -1 -0 1 0 1 4 3 4 3 6 5 5 3 3 3 2 2 1 1 0 -1 -1 -2 -1 -2
-2 -2 -3 -3 -4 -3 -3 -3 -3 -3 -3 -3 -3 -2 -3 -2 -2 -2 -2 -2 -2 -2 -1 1 -0 1 -1 -0 1 1 1 2 2 3 4 3 5 5 5 5 4 3 2 1 1 1 1 0 -1 -2 -2 -2 -2 -3
-1 -1 -1 -1 -1 -2 -3 -3 -3 -3 -3 -3 -2 -2 -2 -2 -2 -2 -1 -1 1 0 0 2 2 1 -1 2 3 4 4 4 3 3 4 5 6 5 4 3 2 1 1 0 0 0 0 -0 -1 -2 -2 -3 -3 -4
-1 -2 -2 -2 -1 -2 -2 -3 -3 -2 -2 -2 -2 -2 -3 -2 -2 -0 0 0 1 2 2 2 1 -0 1 2 3 5 4 6 4 6 5 6 4 3 2 1 0 0 -0 -0 -0 -0 -1 -1 -2 -2 -3 -4 -4 -5
-0 -1 -0 0 -0 -1 -2 -2 -2 -2 -2 -2 -2 -2 -2 -1 0 0 1 3 3 3 3 3 3 3 3 4 4 5 3 4 5 4 5 5 2 1 0 0 -1 -1 -2 -2 -2 -2 -2 -3 -3 -4 -5 -5 -6 -6
-1 -1 -1 -1 -1 -2 -2 -2 -2 -2 -2 -1 0 -0 1 0 2 3 3 3 0 3 4 4 4 4 4 3 3 3 2 4 4 4 4 4 0 0 -0 -0 -1 -2 -2 -3 -4 -4 -5 -5 -5 -5 -6 -6 -7 -7
-2 -2 -2 -2 -2 -2 -2 -2 -2 -2 -0 0 -1 1 1 0 -1 -1 -1 -0 -1 2 3 4 4 5 4 1 3 3 1 3 4 4 2 0 -1 -1 -2 -2 -2 -2 -2 -3 -4 -4 -5 -6 -6 -7 -7 -7 -7 -7
-2 -2 -2 -2 -2 -2 -2 -1 -2 -2 -1 -0 -1 0 1 -0 -0 -1 -1 -1 1 2 3 4 4 3 2 3 3 3 4 4 3 1 -1 -1 -2 -2 -2 -2 -2 -2 -3 -3 -4 -4 -5 -5 -6 -7 -7 -7 -7 -7
-2 -3 -2 -2 -1 -1 -1 -1 -1 -1 -0 0 -1 -3 -2 -0 -1 -1 -1 1 1 2 2 5 3 2 3 3 3 3 3 1 -1 -1 -2 -2 -2 -2 -1 -2 -2 -2 -3 -3 -4 -4 -5 -5 -6 -6 -7 -7 -7 -7
-1 -1 -0 0 -0 -0 -0 -1 -0 0 -1 -1 -1 -2 -2 -2 -2 -1 -1 0 2 3 4 3 3 2 2 2 3 1 -1 -3 -2 -3 -3 -2 -2 -2 -2 -2 -2 -3 -3 -4 -4 -4 -5 -5 -6 -7 -8 -7 -8 -8
-0 0 0 0 0 -0 -0 -1 -0 0 -2 -2 -2 -2 -2 -2 -1 -1 -1 0 1 2 2 3 2 3 3 2 1 -1 -2 -2 -2 -3 -3 -3 -3 -3 -2 -3 -3 -3 -4 -4 -5 -5 -6 -6 -6 -7 -8 -8 -8 -9
-0 0 0 1 0 0 -0 -1 -1 1 1 -1 -1 -1 -1 -1 -2 -2 -0 1 1 2 2 2 2 1 0 -1 -1 -1 -2 -2 -2 -3 -4 -4 -4 -3 -4 -4 -4 -5 -5 -5 -5 -5 -6 -6 -7 -7 -7 -8 -8 -9
-1 -0 0 -0 -1 -0 -1 -0 -0 -0 -0 -0 -1 -0 -0 -1 -0 -1 0 0 1 2 2 0 -2 -2 -3 -3 -3 -3 -3 -3 -2 -2 -2 -4 -5 -5 -5 -5 -5 -5 -5 -6 -6 -6 -6 -6 -7 -7 -7 -7 -8 -9
-0 0 -0 -0 -1 -1 -1 -2 -0 -1 0 -0 -0 0 0 -1 -0 -0 -1 1 1 -1 -2 -2 -2 -3 -3 -3 -4 -3 -4 -4 -3 -3 -4 -4 -5 -5 -5 -5 -5 -5 -6 -6 -6 -6 -6 -6 -7 -7 -7 -8 -8 -9
-0 -0 -1 -2 -2 -2 -2 -2 -1 -1 -0 -0 -1 0 0 -0 -0 -1 0 -0 -2 -4 -3 -3 -3 -2 -3 -4 -5 -4 -4 -4 -4 -4 -5 -4 -4 -4 -5 -5 -6 -6 -6 -6 -6 -6 -7 -8 -7 -7 -8 -8 -9 -9
-1 -1 -2 -2 -2 -2 -3 -2 -1 -0 -0 0 0 -1 -0 -0 -1 0 1 2 -3 -4 -4 -4 -4 -4 -4 -4 -4 -4 -4 -4 -4 -5 -5 -5 -5 -5 -5 -6 -6 -6 -6 -6 -7 -7 -8 -8 -8 -8 -8 -9 -9 -10
-2 -3 -3 -3 -3 -2 -2 -2 -2 -0 -1 -1 -1 -1 -1 -1 -1 -0 0 0 -4 -4 -4 -4 -4 -4 -3 -4 -4 -4 -4 -5 -4 -4 -5 -5 -5 -5 -6 -6 -7 -7 -7 -7 -8 -8 -8 -9 -8 -9 -9 -10 -10 -10
-2 -4 -2 -2 -2 -1 -1 -1 -2 -1 -1 -2 -1 -1 -2 -1 -2 -1 1 -1 -3 -4 -4 -4 -3 -3 -3 -3 -4 -4 -4 -4 -5 -4 -5 -5 -5 -6 -6 -6 -7 -7 -8 -8 -8 -8 -9 -9 -9 -10 -10 -10 -10 -11
-2 -2 -3 -4 -3 -2 -2 -2 -2 -1 -2 -2 -1 -2 -2 -2 -1 0 -4 -4 -3 -3 -4 -4 -4 -3 -3 -4 -4 -4 -4 -5 -5 -4 -5 -5 -6 -6 -6 -6 -6 -6 -7 -7 -7 -8 -9 -10 -10 -10 -10 -11 -11 -11
-3 -3 -3 -3 -3 -3 -2 -2 -2 -2 -1 -2 -2 -2 -2 -1 -1 -4 -4 -5 -4 -5 -4 -4 -4 -5 -5 -5 -5 -5 -5 -5 -5 -5 -5 -5 -5 -6 -6 -6 -6 -7 -7 -7 -8 -8 -9 -10 -10 -10 -11 -11 -11 -11
-3 -4 -4 -5 -4 -3 -3 -2 -2 -2 -3 -3 -2 -1 -2 -3 -4 -5 -5 -5 -4 -5 -5 -5 -5 -6 -5 -5 -5 -5 -5 -5 -5 -6 -6 -6 -6 -6 -6 -6 -6 -7 -7 -7 -8 -8 -9 -10 -10 -10 -10 -11 -11 -11
-4 -6 -3 -4 -4 -2 -3 -3 -3 -4 -4 -4 -4 -4 -3 -4 -4 -4 -4 -4 -5 -5 -6 -6 -6 -6 -6 -6 -6 -6 -6 -6 -6 -6 -6 -6 -6 -6 -6 -6 -7 -7 -7 -8 -8 -8 -9 -9 -10 -10 -11 -11 -11 -11
-5 -5 -5 -4 -3 -4 -5 -6 -6 -6 -6 -5 -5 -5 -4 -4 -5 -4 -4 -4 -5 -5 -6 -6 -6 -6 -6 -6 -6 -7 -7 -6 -6 -6 -7 -7 -7 -7 -7 -7 -7 -7 -8 -8 -8 -8 -9 -9 -10 -10 -10 -10 -10 -11
-6 -4 -4 -4 -3 -5 -6 -5 -5 -5 -5 -5 -5 -5 -5 -5 -4 -4 -3 -4 -5 -6 -6 -6 -6 -6 -7 -6 -7 -7 -7 -7 -7 -7 -7 -7 -7 -7 -7 -7 -7 -7 -8 -8 -8 -9 -9 -9 -9 -10 -10 -10 -10 -10
-6 -6 -6 -5 -4 -5 -5 -5 -5 -5 -5 -5 -5 -5 -5 -5 -4 -4 -4 -4 -5 -6 -6 -6 -6 -7 -7 -7 -7 -7 -7 -7 -7 -7 -7 -7 -7 -7 -7 -7 -7 -8 -8 -8 -9 -9 -9 -9 -9 -9 -10 -10 -10 -10
Height
1356 1359 1359 1360 1361 1361 1361 1359 1357 1352 1346 1341 1344 1348 1350 1353 1360 1361 1369 1376 1382 1389 1392 1393 1395 1399 1403 1408 1410 1418 1427 1428 1429 1432 1427 1423 1421 1416 1412 1413 1411 1419 1419 1416 1419 1422 1420 1402 1402 1411 1411 1412 1414 1413
1353 1355 1356 1357 1358 1359 1359 1357 1355 1350 1344 1340 1342 1347 1349 1355 1361 1364 1370 1377 1383 1387 1392 1396 1399 1402 1403 1407 1410 1414 1415 1416 1420 1420 1418 1416 1415 1412 1409 1407 1406 1409 1410 1411 1409 1404 1411 1407 1408 1409 1413 1413 1414 1415
1350 1352 1353 1355 1356 1357 1357 1356 1354 1351 1343 1340 1345 1348 1352 1359 1365 1372 1378 1381 1386 1389 1394 1397 1400 1402 1403 1406 1410 1412 1415 1416 1420 1421 1422 1420 1416 1408 1409 1402 1402 1398 1400 1404 1408 1401 1401 1406 1406 1409 1411 1412 1414 1415
1347 1349 1351 1353 1354 1355 1355 1355 1354 1354 1351 1349 1350 1353 1357 1365 1372 1377 1381 1385 1388 1389 1393 1394 1396 1400 1404 1406 1408 1412 1414 1415 1416 1421 1426 1422 1422 1417 1408 1401 1401 1401 1399 1398 1398 1399 1403 1403 1404 1407 1410 1412 1413 1414
1343 1346 1348 1350 1352 1353 1355 1355 1355 1355 1356 1354 1356 1359 1363 1367 1372 1375 1379 1380 1378 1391 1391 1389 1395 1396 1400 1404 1408 1411 1411 1410 1415 1421 1423 1420 1415 1415 1408 1406 1400 1397 1395 1398 1393 1399 1399 1400 1400 1404 1408 1410 1412 1414
1339 1341 1344 1347 1349 1352 1354 1354 1354 1355 1357 1358 1360 1363 1367 1371 1373 1375 1380 1386 1391 1394 1396 1395 1395 1395 1397 1399 1403 1405 1406 1410 1416 1419 1417 1414 1413 1415 1407 1398 1393 1390 1392 1395 1399 1401 1399 1401 1401 1403 1406 1409 1411 1414
1334 1336 1339 1342 1346 1349 1352 1354 1355 1355 1355 1356 1359 1365 1369 1374 1378 1381 1386 1388 1391 1395 1397 1392 1381 1387 1391 1396 1399 1402 1406 1409 1413 1416 1415 1413 1412 1414 1404 1396 1396 1397 1396 1398 1399 1400 1401 1401 1403 1404 1406 1409 1412 1415
1326 1329 1333 1338 1342 1346 1349 1353 1355 1356 1358 1361 1365 1370 1374 1379 1382 1386 1385 1387 1391 1394 1395 1387 1385 1390 1391 1394 1398 1401 1404 1408 1410 1410 1410 1410 1411 1411 1399 1386 1387 1394 1396 1398 1399 1399 1400 1401 1402 1404 1407 1410 1413 1416
1314 1319 1326 1332 1339 1345 1350 1354 1357 1358 1360 1362 1367 1374 1379 1383 1386 1387 1387 1390 1390 1396 1390 1385 1383 1380 1389 1391 1395 1398 1402 1405 1407 1405 1403 1407 1398 1395 1388 1389 1390 1393 1395 1396 1398 1399 1400 1401 1403 1406 1408 1411 1414 1417
1302 1307 1317 1327 1335 1342 1348 1353 1357 1360 1363 1366 1372 1377 1381 1383 1385 1388 1391 1393 1393 1391 1388 1381 1380 1379 1385 1383 1388 1393 1394 1393 1394 1393 1394 1393 1382 1385 1387 1388 1390 1393 1395 1397 1398 1400 1400 1401 1404 1406 1409 1412 1414 1418
1301 1305 1312 1323 1333 1341 1348 1353 1357 1362 1366 1370 1373 1376 1379 1382 1387 1388 1389 1390 1383 1381 1376 1371 1373 1377 1377 1375 1375 1378 1378 1381 1378 1382 1383 1379 1371 1380 1385 1388 1391 1393 1396 1397 1398 1398 1399 1401 1404 1407 1410 1412 1415 1418
1309 1312 1317 1325 1336 1344 1351 1355 1359 1365 1369 1370 1371 1375 1380 1383 1384 1384 1379 1378 1374 1365 1365 1367 1369 1368 1370 1371 1374 1374 1373 1371 1371 1374 1374 1368 1379 1383 1386 1390 1392 1394 1396 1397 1398 1398 1400 1402 1405 1407 1410 1413 1416 1419
1320 1323 1328 1335 1343 1350 1356 1359 1363 1367 1369 1371 1371 1374 1375 1376 1373 1373 1368 1360 1359 1361 1362 1363 1365 1365 1368 1369 1372 1370 1372 1371 1374 1376 1369 1370 1381 1385 1388 1391 1393 1395 1396 1397 1398 1399 1401 1403 1405 1408 1410 1413 1415 1418
1338 1340 1343 1348 1353 1357 1360 1363 1365 1368 1370 1368 1368 1370 1367 1367 1363 1359 1359 1358 1362 1360 1359 1361 1363 1364 1366 1369 1371 1372 1378 1375 1373 1371 1368 1375 1383 1386 1389 1391 1393 1395 1396 1397 1399 1400 1401 1404 1406 1408 1411 1413 1415 1418
1351 1353 1356 1358 1361 1363 1365 1366 1367 1368 1368 1368 1369 1365 1365 1366 1367 1367 1366 1366 1365 1362 1363 1364 1365 1365 1368 1373 1372 1375 1378 1371 1366 1366 1376 1382 1384 1387 1389 1391 1393 1395 1397 1398 1400 1401 1403 1405 1407 1409 1411 1414 1416 1418
1359 1360 1361 1363 1365 1366 1367 1368 1369 1369 1369 1369 1369 1367 1366 1366 1366 1366 1366 1366 1365 1365 1365 1364 1365 1368 1370 1369 1371 1369 1366 1365 1371 1379 1381 1383 1385 1388 1390 1392 1395 1397 1398 1400 1402 1403 1405 1407 1408 1411 1413 1415 1417 1419
1366 1366 1367 1367 1366 1368 1369 1371 1371 1370 1369 1368 1368 1369 1368 1366 1366 1367 1366 1365 1366 1366 1366 1364 1367 1369 1371 1368 1368 1370 1370 1376 1380 1382 1383 1384 1386 1388 1391 1394 1396 1398 1400 1402 1403 1405 1406 1408 1410 1412 1414 1416 1418 1420
1370 1370 1369 1367 1367 1369 1370 1370 1371 1370 1370 1369 1368 1369 1369 1368 1368 1367 1367 1367 1367 1366 1365 1366 1369 1369 1370 1369 1367 1375 1379 1381 1382 1383 1384 1385 1387 1390 1392 1394 1396 1398 1400 1402 1404 1406 1407 1409 1411 1413 1415 1416 1418 1420
1369 1368 1368 1367 1367 1369 1369 1370 1370 1370 1371 1371 1371 1371 1370 1370 1369 1368 1368 1368 1368 1368 1368 1369 1370 1366 1369 1372 1375 1377 1379 1381 1383 1385 1385 1387 1388 1390 1392 1394 1397 1398 1401 1402 1404 1406 1408 1410 1412 1413 1415 1416 1419 1420
1370 1369 1368 1367 1367 1369 1369 1370 1370 1369 1368 1371 1371 1371 1370 1370 1370 1369 1369 1369 1369 1369 1369 1369 1370 1372 1373 1376 1376 1377 1379 1381 1382 1385 1387 1388 1389 1391 1393 1395 1397 1398 1400 1402 1404 1406 1407 1409 1410 1412 1413 1415 1417 1419
1370 1369 1369 1368 1368 1368 1369 1369 1369 1370 1370 1370 1371 1371 1371 1371 1371 1371 1371 1370 1370 1369 1369 1372 1373 1374 1375 1376 1376 1377 1378 1380 1382 1384 1385 1388 1389 1391 1393 1394 1396 1398 1400 1401 1403 1404 1406 1408 1408 1409 1411 1413 1415 1417
1369 1368 1368 1367 1368 1369 1369 1369 1369 1370 1370 1370 1370 1370 1370 1371 1370 1370 1371 1370 1369 1371 1372 1372 1373 1374 1375 1376 1376 1377 1378 1379 1381 1383 1384 1386 1389 1391 1392 1394 1395 1397 1398 1399 1401 1402 1404 1405 1406 1407 1409 1411 1413 1415
1369 1368 1368 1368 1368 1368 1371 1369 1370 1369 1369 1370 1370 1369 1369 1369 1369 1370 1368 1367 1369 1369 1370 1371 1373 1374 1375 1376 1376 1377 1378 1380 1381 1383 1384 1386 1387 1389 1391 1392 1394 1395 1396 1398 1399 1400 1402 1402 1403 1405 1407 1408 1410 1412
1368 1367 1367 1367 1367 1369 1369 1369 1368 1368 1368 1367 1367 1369 1368 1369 1369 1367 1363 1361 1366 1367 1368 1370 1372 1373 1375 1376 1377 1378 1379 1380 1381 1383 1384 1386 1387 1388 1389 1390 1391 1392 1394 1395 1396 1397 1398 1399 1401 1403 1404 1406 1408 1410
1370 1369 1368 1367 1368 1368 1367 1367 1368 1366 1367 1368 1368 1367 1367 1369 1367 1363 1360 1359 1363 1365 1366 1368 1370 1372 1373 1375 1376 1377 1378 1380 1381 1383 1383 1385 1386 1387 1388 1389 1389 1390 1391 1392 1393 1394 1395 1396 1398 1400 1402 1404 1406 1408
1366 1367 1367 1365 1366 1366 1365 1364 1366 1366 1366 1367 1367 1367 1368 1367 1365 1359 1355 1358 1360 1363 1364 1366 1368 1370 1372 1373 1374 1376 1377 1379 1380 1382 1383 1384 1385 1385 1386 1387 1388 1388 1388 1389 1390 1391 1392 1393 1395 1397 1399 1402 1403 1406
1364 1364 1365 1365 1365 1365 1365 1366 1365 1365 1365 1364 1363 1366 1366 1363 1356 1355 1358 1359 1360 1361 1363 1365 1367 1368 1370 1371 1373 1373 1375 1377 1379 1380 1381 1382 1383 1384 1385 1385 1386 1387 1386 1387 1388 1389 1390 1391 1393 1395 1397 1399 1401 1404
1364 1364 1364 1365 1364 1365 1364 1363 1363 1362 1361 1363 1364 1362 1361 1357 1354 1358 1358 1358 1359 1360 1361 1362 1364 1366 1367 1368 1369 1370 1372 1373 1376 1377 1378 1379 1380 1381 1381 1382 1383 1384 1384 1385 1386 1387 1388 1389 1391 1393 1395 1397 1400 1403
1364 1364 1364 1364 1364 1363 1362 1361 1360 1362 1363 1363 1361 1357 1357 1357 1357 1357 1357 1356 1357 1358 1359 1360 1361 1362 1363 1365 1366 1367 1369 1371 1373 1374 1375 1377 1377 1378 1378 1380 1381 1382 1382 1383 1384 1385 1387 1389 1391 1393 1395 1397 1399 1402
1363 1364 1363 1363 1362 1358 1359 1360 1360 1360 1360 1361 1360 1358 1357 1356 1354 1354 1353 1353 1354 1354 1355 1356 1357 1358 1360 1361 1363 1365 1366 1368 1369 1371 1373 1374 1374 1375 1376 1377 1378 1379 1380 1381 1383 1384 1386 1388 1390 1393 1395 1396 1398 1400
1363 1363 1362 1361 1358 1358 1359 1358 1358 1358 1358 1357 1356 1355 1353 1353 1350 1348 1348 1348 1349 1350 1351 1353 1354 1355 1357 1359 1360 1362 1364 1365 1366 1367 1368 1369 1371 1372 1373 1374 1376 1377 1378 1380 1381 1383 1385 1387 1389 1391 1393 1395 1397 1399
1361 1360 1360 1358 1357 1358 1358 1358 1356 1355 1353 1352 1351 1351 1350 1349 1348 1344 1341 1341 1343 1344 1345 1348 1350 1351 1354 1356 1358 1360 1361 1362 1362 1363 1364 1365 1367 1369 1370 1371 1373 1375 1376 1378 1380 1382 1384 1386 1388 1390 1391 1393 1395 1398
1359 1359 1359 1358 1356 1356 1356 1357 1354 1352 1350 1348 1346 1346 1346 1345 1341 1338 1336 1336 1337 1339 1341 1343 1346 1348 1350 1353 1355 1357 1358 1359 1360 1361 1361 1362 1364 1366 1368 1369 1371 1373 1375 1377 1379 1381 1383 1385 1387 1388 1390 1392 1394 1396
Wind_Speed
15 16 13 12 10 9 8 10 15 18 19 17 22 26 23 28 29 29 23 27 20 6 9 6 9 15 15 17 10 12 9 7 8 7 6 9 8 11 15 13 16 9 7 10 13 17 18 16 2 12 6 2 1 1
15 13 10 8 8 9 9 9 13 18 23 7 20 21 22 33 20 21 15 11 10 10 8 7 9 9 9 16 15 16 8 10 10 7 7 6 9 7 14 15 17 16 13 11 11 6 7 7 11 11 4 3 3 4
13 12 10 10 9 9 8 7 8 11 16 17 22 23 23 22 21 13 15 14 11 9 6 7 12 13 12 8 10 11 15 7 4 2 4 4 8 8 12 14 16 18 16 9 8 11 14 12 12 8 8 6 5 7
14 13 12 10 9 9 7 5 5 5 7 5 17 20 21 19 20 15 15 15 10 8 3 7 13 16 16 15 14 14 8 4 2 3 7 4 3 5 7 9 9 9 8 9 14 16 6 11 18 14 9 7 8 11
14 14 13 12 11 9 6 5 4 1 2 10 14 17 16 15 15 12 11 11 8 1 1 6 4 15 20 20 21 18 14 9 5 5 5 6 13 8 9 7 10 15 13 10 12 4 12 5 13 14 13 11 13 16
15 15 14 15 14 11 8 5 3 1 3 7 18 18 16 15 14 10 5 5 10 5 1 3 5 9 19 20 20 17 15 13 10 5 7 11 15 5 4 7 9 9 9 10 8 2 2 2 5 10 12 13 14 15
20 20 18 16 15 13 9 7 4 4 2 8 15 18 16 15 11 3 3 5 13 9 2 3 2 3 11 16 16 15 13 8 9 4 7 13 14 5 7 13 5 9 5 5 5 5 4 6 4 9 11 13 15 15
23 22 21 19 17 14 12 9 6 6 5 13 16 24 18 16 8 4 1 3 12 5 3 3 1 3 16 7 7 10 9 10 8 7 6 6 5 4 5 12 16 7 6 6 7 4 2 6 10 11 13 15 17 18
28 27 28 24 20 17 16 15 12 8 12 13 22 24 18 10 5 4 8 4 14 5 3 4 3 2 15 8 7 6 8 3 6 5 7 6 7 7 7 6 8 8 7 7 5 5 6 9 11 12 13 15 17 19
14 21 34 30 27 20 19 18 13 19 18 28 29 11 5 9 10 7 1 3 4 7 7 4 1 3 13 8 6 8 9 5 6 8 10 4 6 9 7 4 7 9 7 8 7 6 8 9 11 12 13 13 15 18
16 17 27 34 28 26 21 17 25 26 28 22 6 5 9 17 8 4 3 5 7 4 8 10 14 4 12 5 5 7 5 5 5 5 8 4 5 7 7 9 11 10 10 5 2 2 5 8 11 12 13 13 15 17
22 22 25 32 34 27 24 29 28 27 16 8 7 18 16 7 5 5 4 4 6 5 8 5 6 10 5 4 2 5 2 4 2 9 4 3 4 8 11 11 10 11 7 4 3 3 6 9 11 12 13 13 16 18
33 32 33 35 34 30 32 29 24 16 15 11 3 6 6 6 6 4 5 4 3 5 7 8 6 5 7 4 4 2 3 2 4 3 3 3 10 10 12 11 10 9 6 6 6 7 8 9 10 12 14 16 20 21
33 33 33 31 28 26 31 21 17 17 6 3 3 3 3 4 4 2 6 4 3 2 9 10 4 2 2 3 1 3 2 2 3 3 2 4 10 13 12 10 11 9 8 8 8 9 11 13 13 13 14 17 20 20
29 29 28 27 19 12 11 13 7 3 2 1 1 2 2 1 1 2 3 1 2 3 9 7 3 2 2 2 1 3 3 3 4 0 3 8 12 13 12 11 10 9 8 7 7 8 9 10 11 11 11 13 14 15
21 21 20 17 13 8 11 9 6 0 1 1 2 2 2 3 3 3 1 3 5 6 5 2 2 2 1 2 3 3 2 2 3 3 5 8 14 14 13 11 10 10 9 8 8 8 9 9 9 10 10 11 12 13
14 13 13 7 7 4 8 5 2 1 2 2 2 2 1 3 4 2 1 3 2 4 1 1 2 1 2 1 2 1 1 3 6 5 4 9 16 15 13 11 11 11 10 10 9 9 10 10 10 10 11 11 10 12
7 6 8 6 6 5 5 2 1 1 1 2 2 3 3 3 0 1 1 1 1 2 0 2 2 1 2 1 1 3 4 5 6 6 7 9 14 13 12 12 12 11 11 12 11 10 10 10 10 9 10 11 11 12
5 4 7 10 4 3 2 1 1 2 1 2 1 1 1 1 2 2 2 3 3 4 5 2 1 1 1 2 2 5 8 7 8 6 7 8 10 11 11 12 12 11 10 11 11 9 9 9 8 10 10 12 11 13
3 3 4 5 2 1 2 1 1 1 2 2 2 1 1 1 0 2 2 1 1 1 1 1 1 2 2 3 2 4 7 8 9 9 7 6 8 10 10 11 11 11 10 11 11 11 10 10 10 11 11 12 13 14
3 2 2 4 1 3 2 1 2 1 3 2 3 2 1 1 1 1 1 1 1 1 2 1 3 4 4 3 3 4 6 8 8 6 9 8 8 8 9 10 10 11 10 10 10 10 11 9 10 11 13 13 14 14
4 3 1 2 2 2 2 2 1 3 2 2 4 2 1 2 2 2 2 3 2 2 3 4 6 5 3 2 4 6 8 9 8 8 8 9 9 9 9 8 8 9 9 10 10 11 10 11 12 12 12 14 15 16
5 2 0 1 1 2 1 1 2 2 2 3 3 2 2 2 2 2 3 3 3 4 5 6 7 5 6 6 5 7 6 7 7 7 8 8 9 11 9 8 8 9 8 9 10 12 12 14 13 12 13 15 15 16
5 0 1 1 1 2 1 1 2 3 1 3 2 2 1 2 1 3 3 4 4 8 8 10 10 8 7 7 6 7 7 6 6 6 6 7 7 7 7 7 8 9 10 11 11 11 13 12 12 14 14 14 15 16
2 1 1 1 1 2 2 2 1 2 2 3 1 2 2 3 2 3 3 5 10 12 11 10 9 9 9 8 7 7 8 7 6 5 5 5 6 6 6 6 6 7 10 12 11 12 12 12 13 13 14 15 16 16
3 1 1 2 2 2 2 2 3 3 2 3 4 0 1 2 3 4 1 4 9 14 14 13 11 9 8 8 9 9 8 8 7 6 5 5 6 6 7 7 6 7 8 10 11 11 12 12 13 14 14 15 16 17
3 2 2 2 1 2 1 1 1 2 3 4 2 3 3 4 4 1 1 6 6 9 9 10 11 10 9 8 8 8 9 9 9 7 7 5 5 5 7 8 6 6 7 6 8 10 11 12 13 14 14 14 16 18
1 2 2 3 3 2 2 2 3 3 2 2 2 4 3 2 1 1 2 4 7 7 9 11 12 12 10 11 12 13 13 13 11 11 10 9 9 8 9 9 7 7 6 5 7 8 10 10 12 13 13 14 15 17
2 1 2 1 2 3 4 3 2 2 3 3 2 2 2 2 3 3 4 5 8 9 10 13 14 14 14 14 14 13 12 12 13 11 10 7 8 8 11 10 8 8 7 6 7 8 7 10 11 11 11 12 14 16
1 1 2 1 2 3 3 4 3 5 5 7 6 8 10 9 11 10 10 10 12 10 9 10 11 13 12 13 14 14 13 13 14 12 8 8 9 10 8 9 9 8 7 8 9 10 11 12 12 12 12 12 13 15
1 1 3 3 3 1 3 3 5 7 8 9 12 15 15 10 11 14 16 15 13 13 12 14 14 13 14 14 13 12 11 14 15 14 15 15 13 11 10 9 9 9 9 10 11 11 12 13 13 14 13 13 13 14
3 3 2 2 2 1 2 4 4 5 5 9 12 11 8 6 8 7 14 15 19 19 19 16 17 17 17 14 14 14 12 10 9 8 11 12 11 10 10 10 10 11 11 11 11 12 12 12 12 12 13 13 13 14
3 4 4 4 3 3 3 3 3 4 6 5 7 10 11 7 6 7 8 10 16 19 19 18 16 16 16 15 14 12 10 9 7 6 7 10 12 10 8 8 10 11 11 12 13 13 13 13 13 12 12 13 13 15
Wind_Direction
212 243 246 252 250 249 260 288 301 314 327 240 213 213 205 178 177 156 144 177 153 126 158 167 181 185 191 196 188 169 163 211 184 210 236 237 247 252 258 253 260 231 217 218 231 244 255 248 174 214 289 282 261 352
222 223 229 222 231 243 254 275 306 326 344 160 185 199 159 160 138 149 132 146 132 133 127 166 192 213 228 216 221 177 211 160 197 211 225 251 246 252 251 252 248 242 250 267 251 277 228 263 222 229 244 258 224 180
209 213 216 220 233 246 259 281 308 313 347 107 154 153 149 138 129 134 147 148 130 109 137 189 214 220 209 198 203 206 219 204 188 229 276 276 254 247 242 244 249 255 217 229 260 261 237 240 212 220 222 228 191 163
216 218 220 224 232 241 252 270 292 347 359 77 126 137 144 151 148 129 138 148 137 135 173 191 207 209 209 209 210 210 211 188 201 233 258 264 268 346 289 283 277 264 305 261 251 258 243 244 241 231 216 202 173 158
224 224 224 225 230 234 244 260 252 285 51 162 143 143 151 148 139 132 125 139 122 90 208 150 208 221 214 211 217 217 208 196 218 238 226 245 264 272 259 276 267 268 255 251 258 292 250 283 224 210 200 193 178 166
230 231 231 229 229 228 226 217 238 164 121 150 168 152 154 156 145 114 87 174 181 168 147 219 230 210 206 212 212 214 205 206 197 207 254 253 247 258 271 275 296 274 227 255 247 253 95 89 141 185 194 190 179 173
242 241 234 224 222 221 212 191 180 221 242 172 174 165 166 159 146 106 97 125 184 181 193 250 209 158 201 201 206 210 207 201 205 220 236 259 261 254 267 260 252 274 248 229 215 163 142 163 181 173 174 173 169 164
238 231 225 220 218 213 200 185 200 213 171 168 173 168 160 155 163 183 35 38 155 172 216 278 122 194 171 159 177 185 174 187 204 231 219 234 231 207 256 259 232 207 202 192 187 221 264 169 154 156 162 164 163 161
235 224 218 215 209 202 189 186 201 190 137 153 155 157 147 160 161 173 230 206 169 210 237 219 223 233 174 169 152 142 165 175 199 215 225 215 228 226 246 197 183 182 186 189 187 168 156 157 157 161 164 169 168 165
202 200 205 201 196 186 187 186 174 148 138 140 141 141 161 178 177 186 97 127 246 215 239 244 228 215 178 170 161 164 168 201 195 209 186 237 216 209 199 193 164 161 157 152 149 164 163 161 164 167 171 170 171 170
143 151 172 184 178 182 179 171 149 140 146 143 151 139 145 156 143 167 193 207 202 225 212 236 224 226 206 206 156 170 174 190 206 164 184 223 229 159 156 141 143 143 139 134 127 142 176 179 174 171 169 168 167 167
113 124 139 159 166 161 154 143 142 149 158 179 171 132 132 178 196 211 199 196 220 219 177 176 210 209 153 124 99 178 178 204 175 163 211 242 106 132 144 143 139 141 133 102 83 142 159 167 171 171 170 168 168 167
102 114 125 138 144 147 153 148 154 170 160 156 127 158 185 170 207 223 190 219 200 173 192 170 164 160 153 162 138 215 150 136 142 184 217 41 119 150 151 147 139 138 125 103 99 117 137 149 159 167 167 175 179 180
98 105 115 127 136 143 152 153 137 144 190 225 178 165 257 170 230 252 347 18 6 297 170 162 133 76 83 68 360 101 74 201 209 218 200 118 157 159 150 147 140 135 136 119 120 132 147 164 167 174 187 189 192 192
108 113 117 125 131 127 151 137 96 22 347 129 253 192 220 347 331 292 297 259 265 198 148 150 121 103 73 93 63 121 161 209 226 203 80 118 151 150 144 149 154 150 147 139 137 140 143 148 158 171 184 185 191 190
103 124 106 105 96 97 140 133 136 352 345 47 20 220 155 225 147 193 169 170 168 165 153 138 129 86 101 130 178 207 223 224 103 79 113 153 161 157 154 153 156 156 155 149 148 149 151 152 155 161 165 175 186 192
61 61 57 73 127 108 146 157 186 345 350 336 72 20 323 360 55 120 223 141 170 174 128 140 113 76 140 214 196 221 334 67 120 113 108 166 166 160 158 159 164 166 165 162 158 157 160 161 169 169 169 181 182 190
68 47 42 60 127 133 167 132 136 163 67 16 328 28 9 3 8 78 63 51 185 145 113 71 137 172 213 224 169 115 113 118 99 111 111 144 170 168 172 172 172 174 172 169 169 166 168 170 166 162 180 175 177 183
23 28 19 15 81 130 107 77 110 123 106 140 132 135 118 120 50 30 43 61 75 88 109 131 171 219 137 63 103 125 152 162 153 139 135 145 167 181 186 182 182 175 175 182 178 170 170 164 169 178 173 174 175 179
7 15 4 353 62 137 119 80 99 129 164 146 151 137 98 83 93 33 36 51 132 151 150 175 72 73 67 138 147 159 168 164 154 157 147 151 163 164 170 175 178 185 182 185 178 175 173 178 179 181 186 184 184 186
28 275 318 15 31 73 106 110 89 104 149 165 155 190 152 145 180 198 204 337 214 213 154 109 134 130 131 145 156 155 165 168 182 180 178 166 166 170 180 178 191 186 189 188 193 191 187 193 196 198 205 198 196 200
342 335 329 357 90 85 84 60 110 150 192 155 179 217 185 214 220 204 287 218 212 161 166 166 156 155 147 134 142 154 162 163 178 182 173 170 166 173 175 179 176 185 191 198 195 206 201 198 213 210 203 197 194 197
341 339 23 46 103 101 127 130 166 181 168 185 191 204 215 220 223 237 240 218 197 190 173 160 159 158 150 135 141 169 171 166 168 178 178 179 189 189 184 188 202 196 191 200 202 215 208 220 220 204 195 199 193 190
341 263 99 61 59 122 122 195 178 171 159 205 194 238 198 224 248 238 248 196 179 190 175 175 166 157 153 156 155 151 154 150 150 154 168 178 184 185 192 194 198 204 202 215 217 207 217 219 210 200 203 196 193 195
282 336 149 123 163 161 174 175 241 210 212 209 208 246 189 212 226 239 246 171 184 185 183 177 184 192 190 188 186 183 185 175 176 176 178 183 184 179 186 193 199 203 210 211 208 210 222 213 210 202 200 195 196 193
248 211 242 173 167 218 190 206 202 210 199 213 217 173 209 224 239 240 206 158 184 189 192 191 188 188 192 195 192 199 198 188 185 191 199 190 194 204 195 195 203 217 215 212 218 216 212 216 203 202 200 198 198 189
237 184 185 194 198 182 195 232 204 215 212 216 192 189 204 229 232 155 149 178 185 188 192 200 205 211 213 209 205 191 193 191 199 205 196 194 200 207 222 212 212 228 254 236 226 221 216 209 201 199 197 198 197 192
307 222 227 187 197 214 236 238 212 219 218 181 216 210 230 237 2 110 205 207 195 184 197 210 219 228 229 221 217 221 217 217 215 217 228 236 244 245 232 228 231 237 250 243 224 215 210 209 200 195 192 192 189 188
231 275 206 208 230 212 226 217 233 214 198 212 242 236 239 242 236 233 243 222 217 217 235 242 240 231 224 216 221 219 221 220 215 211 211 223 250 243 228 230 234 237 237 226 211 204 200 187 185 184 187 189 189 187
207 243 262 208 230 230 203 206 224 222 229 241 254 266 267 269 274 266 256 247 236 246 238 222 225 215 208 208 210 213 216 215 212 208 220 229 229 234 227 222 228 226 222 215 205 197 188 184 181 178 177 183 186 186
252 250 251 248 264 272 243 235 258 265 256 255 250 253 263 274 279 275 256 251 243 229 226 219 218 205 206 203 206 207 216 230 236 244 236 222 222 226 222 222 220 215 212 209 206 201 194 191 188 190 194 195 195 196
215 226 251 250 222 239 269 268 277 265 260 248 254 245 247 247 247 250 256 236 227 224 226 224 218 215 209 210 215 216 223 238 255 235 227 219 212 214 217 219 213 206 202 201 201 200 197 195 194 198 203 203 206 204
231 229 237 262 237 239 198 250 257 273 253 257 255 244 242 245 255 248 251 238 228 230 227 226 223 220 219 218 222 221 222 225 233 237 237 217 206 206 211 210 202 200 200 199 200 203 204 203 204 206 207 208 213 211